Covington, KY

3:34 PM EST on December 05, 2019 (GMT -0500)
Cincinnati-Northern KY International

Weather History for KCVG - October, 2019

Change the Weather History Date:

Tuesday, October 15, 2019

  Actual Average Record
Temperature  
Mean Temperature 60 °F 56 °F  
Max Temperature 77 °F 67 °F 87 °F (1897)
Min Temperature 44 °F 46 °F 28 °F (2006)
Degree Days  
Heating Degree Days 6 9  
Month to date heating degree days 113  
Since 1 July heating degree days 171  
Cooling Degree Days 0 0  
Month to date cooling degree days 16  
Year to date cooling degree days 1121  
Growing Degree Days 10 (Base 50)    
Moisture  
Dew Point 44 °F    
Average Humidity 56    
Maximum Humidity 78    
Minimum Humidity 30    
Precipitation  
Precipitation 0.01 in 0.11 in 1.59 in (1914)
Month to date precipitation 1.59  
Year to date precipitation 34.01  
Snow  
Snow - 0.00 in 0.00 in ()
Month to date snowfall 0.1  
Since 1 July snowfall 0.1  
Since 1 September snowfall 0.1  
Snow Depth -    
Sea Level Pressure  
Sea Level Pressure 29.95 in    
Wind  
Wind Speed 6 mph ()    
Max Wind Speed 17 mph    
Max Gust Speed 22 mph    
Visibility 10.0 miles    
Events Rain , Thunderstorm    
T = Trace of Precipitation, MM = Missing Value Source: Averaged Metar Reports

Daily Weather History Graph

Daily Weather History Graph

Search for Another Location

Airport or City:

Astronomy

Oct. 15, 2019 Rise Set
Actual Time 7:47 AM EDT 7:00 PM EDT
Civil Twilight 7:21 AM EDT 7:27 PM EDT
Nautical Twilight 6:50 AM EDT 7:58 PM EDT
Astronomical Twilight 6:19 AM EDT 8:29 PM EDT
Moon 8:20 PM EDT (10/15) 9:17 AM EDT (10/15)
Length of Visible Light 12h 06m
Length of Day
11h 12m
Full, 97% of the Moon is Illuminated
Oct 15
Full
Oct 21
Last Quarter
Oct 27
New
Nov 4
First Quarter
Nov 12
Full

Hourly Weather History & Observations

Time (EDT) Temp. Windchill Dew Point Humidity Pressure Visibility Wind Dir Wind Speed Gust Speed Precip Events Conditions
12:52 AM 48.9 °F - 36.0 °F 61% 30.09 in 10.0 mi Calm Calm - N/A   Clear
1:52 AM 48.0 °F - 35.1 °F 61% 30.10 in 10.0 mi Calm Calm - N/A   Clear
2:52 AM 48.9 °F - 37.0 °F 64% 30.09 in 10.0 mi East 3.5 mph - N/A   Clear
3:52 AM 48.9 °F - 37.9 °F 66% 30.08 in 10.0 mi East 3.5 mph - N/A   Clear
4:52 AM 48.9 °F - 37.0 °F 64% 30.08 in 10.0 mi Calm Calm - N/A   Clear
5:52 AM 48.0 °F - 36.0 °F 63% 30.08 in 10.0 mi SE 5.8 mph - N/A   Clear
6:52 AM 46.0 °F 43.9 °F 35.1 °F 66% 30.08 in 10.0 mi SE 4.6 mph - N/A   Clear
7:52 AM 44.1 °F 40.1 °F 36.0 °F 73% 30.07 in 10.0 mi ESE 6.9 mph - N/A   Partly Cloudy
8:52 AM 48.9 °F - 39.0 °F 69% 30.06 in 10.0 mi ESE 4.6 mph - N/A   Clear
9:52 AM 57.0 °F - 39.0 °F 51% 30.06 in 10.0 mi SE 5.8 mph - N/A   Clear
10:52 AM 64.0 °F - 36.0 °F 35% 30.05 in 10.0 mi SSE 9.2 mph - N/A   Partly Cloudy
11:52 AM 68.0 °F - 39.9 °F 36% 30.01 in 10.0 mi South 11.5 mph - N/A   Partly Cloudy
12:52 PM 72.0 °F - 42.1 °F 34% 29.96 in 10.0 mi SSE 13.8 mph - N/A   Partly Cloudy
1:52 PM 73.9 °F - 41.0 °F 30% 29.93 in 10.0 mi South 15.0 mph 21.9 mph N/A   Scattered Clouds
2:52 PM 73.9 °F - 45.0 °F 35% 29.90 in 10.0 mi South 17.3 mph 21.9 mph N/A   Scattered Clouds
3:52 PM 75.0 °F - 48.9 °F 40% 29.86 in 10.0 mi South 12.7 mph 19.6 mph N/A   Partly Cloudy
4:52 PM 75.0 °F - 51.1 °F 43% 29.84 in 10.0 mi SSW 13.8 mph 21.9 mph N/A   Partly Cloudy
5:52 PM 73.0 °F - 52.0 °F 48% 29.84 in 10.0 mi SSW 13.8 mph - N/A   Partly Cloudy
6:52 PM 69.1 °F - 53.1 °F 57% 29.83 in 10.0 mi SSW 8.1 mph - N/A   Partly Cloudy
7:52 PM 68.0 °F - 54.0 °F 61% 29.83 in 10.0 mi South 10.4 mph - N/A   Mostly Cloudy
8:52 PM 66.0 °F - 55.0 °F 68% 29.82 in 10.0 mi SSW 6.9 mph - N/A   Scattered Clouds
9:52 PM 64.9 °F - 55.0 °F 70% 29.80 in 10.0 mi South 9.2 mph - N/A   Scattered Clouds
10:52 PM 66.0 °F - 55.9 °F 70% 29.78 in 10.0 mi SSW 11.5 mph - N/A   Overcast
11:24 PM 66.9 °F - 55.9 °F 68% 29.79 in 10.0 mi SSW 9.2 mph - N/A Thunderstorm Thunderstorm
11:52 PM 64.0 °F - 57.0 °F 78% 29.78 in 10.0 mi SW 10.4 mph - 0.01 in Rain , Thunderstorm Light Thunderstorms and Rain